Simultaneous Nadir Overpasses (SNOs) Predictions

Prediction of SNOs between METOP-B and TERRA Satellite Orbit:

Table of predicted SNOs for the next 14.0 days since TLE Epoch: 10/13/2014
Index Date (METOP-B) Time (METOP-B) Lat,Lon (METOP-B) SZA (METOP-B ) Date (TERRA) Time (TERRA) Lat,Lon (TERRA) SZA (TERRA ) Distance(km) Time Diff (sec)
1 10/13/2014 16:15:41 -81.30, 163.03 87.71 10/13/2014 16:16:03 -81.29, 162.93 87.72 1.86 22
2 10/13/2014 17:06:22 81.30, -29.50 92.32 10/13/2014 17:05:29 81.30, -29.30 92.32 3.36 53
3 10/16/2014 11:50:00 -81.30,-130.46 86.65 10/16/2014 11:50:17 -81.31,-130.39 86.63 1.17 17
4 10/16/2014 12:40:40 81.31, 37.39 93.44 10/16/2014 12:39:43 81.31, 37.34 93.40 0.90 57
5 10/19/2014 07:24:18 -81.30, -63.97 85.60 10/19/2014 07:24:30 -81.31, -63.93 85.59 0.84 12
6 10
